Regional Weather Roundup
Issued by NWS

Home | Current Version | Previous Version | Text Only | Print | Product List | Glossary On
Versions: 1 2 3 4 5 6 7 8 9 10 11 12 13 14 15 16 17 18 19 20 21 22 23 24 25 26 27 28 29 30 31 32 33 34 35 36 37 38 39 40 41 42 43 44 45 46 47 48 49 50
000
ASUS44 KFWD 190215
RWRTX
NORTH TEXAS HOURLY WEATHER ROUNDUP
NATIONAL WEATHER SERVICE FORT WORTH TX
900 PM CDT WED OCT 18 2017

NOTE: "FAIR" INDICATES FEW OR NO CLOUDS BELOW 12,000 FEET WITH NO
SIGNIFICANT WEATHER AND/OR OBSTRUCTIONS TO VISIBILITY.

TXZ118-119-190300-
DALLAS/FORT WORTH METROPLEX

CITY           SKY/WX    TMP DP  RH WIND       PRES   REMARKS
DFW AIRPORT    CLOUDY    70  45  40 SE10      30.08R
DALLAS LOVE    CLOUDY    72  44  36 SE13      30.09R
FTW MEACHAM    PTCLDY    71  42  35 SE10      30.08R
DAL-EXECUTIVE  PTCLDY    64  47  53 SE5       30.10R
FTW-ALLIANCE   MOCLDY    68  41  37 SE7       30.08R
FTW-NAS-JRB    CLOUDY   N/A N/A N/A SE8       30.09R
FTW-SPINKS     CLOUDY    63  41  45 SE6       30.11R
ARLINGTON      CLOUDY    59  46  62 SE3       30.10R
GRAND PRAIRIE  CLEAR     70  39  32 SE5       30.11R
MESQUITE       CLOUDY    65  43  44 SE6       30.10S
LANCASTER      CLOUDY    65  44  46 SE3       30.11R
$$

TXZ091>094-102>105-117-120-121-131>134-190300-
NORTH CENTRAL TEXAS

CITY           SKY/WX    TMP DP  RH WIND       PRES   REMARKS
SHRMAN/DENISON CLOUDY    68  44  41 SE9       30.11S
GAINESVILLE    CLOUDY    60  46  58 SE8       30.11R
BOWIE          CLOUDY    66  45  47 SE6       30.07R
BRIDGEPORT     MOCLDY    71  41  34 SE9G16    30.09R
DECATUR        CLOUDY    69  40  34 SE8       30.08R
DENTON         CLOUDY    65  45  48 SE6       30.09R
MCKINNEY       PTCLDY    63  49  60 SE3       30.11R
BONHAM         CLOUDY    62  46  55 SE5       30.12S
GREENVILLE     PTCLDY    63  48  59 CALM      30.12R
ROCKWALL       CLOUDY    67  44  43 SE7       30.11R
TERRELL        CLOUDY    67  42  40 SE7       30.11R
WAXAHACHIE     PTCLDY    68  47  46 CALM      30.12R
CLEBURNE       CLOUDY    66  41  39 S7        30.11R
GRANBURY       CLOUDY    67  45  45 E3        30.10R
$$

TXZ083>090-098>101-113>116-127>130-139>142-154-155-190300-
WESTERN NORTH TEXAS

CITY           SKY/WX    TMP DP  RH WIND       PRES   REMARKS
WICHITA FALLS  CLOUDY    64  47  53 SE9       30.05R
WF-KICKAPOO    CLOUDY    67  47  48 SE8       30.07R
VERNON         CLOUDY    67  41  37 SE6       30.04R
ABILENE        PTCLDY    68  41  37 S10       30.06R
ABILENE-DYESS  PTCLDY    68  44  42 SE13      30.04R
GRAHAM         PTCLDY    71  43  36 SE9       30.04R
BRECKENRIDGE   CLEAR     72  38  29 SE12      30.05S
CISCO          PTCLDY    64  41  42 SE10      30.08S
EASTLAND       CLOUDY    66  41  40 SE7       30.07S
RANGER         CLOUDY    66  42  41 S9        30.09R
MINERAL WELLS  CLEAR     66  43  43 SE12      30.06S
STEPHENVILLE   CLOUDY    68  42  38 SE8       30.12R
COMANCHE       PTCLDY    65  43  44 S6        30.09R
COLEMAN        PTCLDY    70  37  30 S7        30.08R
$$

TXZ143>147-156>162-174-175-190300-
CENTRAL TEXAS

CITY           SKY/WX    TMP DP  RH WIND       PRES   REMARKS
WACO           PTCLDY    67  42  40 SE9       30.10R
WACO-TSTC      CLEAR     66  41  39 SE3       30.10R
WACO-MCGREGOR  CLOUDY    67  44  43 SE8       30.10R
HILLSBORO      CLOUDY    68  41  36 SE8       30.10S
MEXIA          CLOUDY    64  41  42 CALM      30.11R
HEARNE         CLEAR     64  51  61 CALM      30.12R
CAMERON        CLEAR     67  46  47 SE3       30.11R
TEMPLE         CLOUDY    68  46  45 SE10      30.11
KILLEEN        CLOUDY    62  45  53 SE5       30.10R
KILLEEN-SKYLRK CLOUDY    68  47  46 SE8       30.11R
FORT HOOD      CLOUDY    68  46  46 SE3       30.07R
GATESVILLE     PTCLDY    66  45  45 SE5       30.12R
HAMILTON       CLOUDY    66  45  45 S8        30.11R
LAMPASAS       MOCLDY    70  50  50 SE5       30.09S
$$

TXZ095>097-106>112-122>126-135>138-148>153-164>167-190300-
EAST TEXAS

CITY           SKY/WX    TMP DP  RH WIND       PRES   REMARKS
PARIS          CLOUDY    60  46  59 E9        30.13R
SULPHUR SPRNGS CLOUDY    64  46  51 SE5       30.14S
MOUNT PLEASANT CLEAR     58  53  82 CALM      30.15R
GILMER         CLOUDY    60  52  74 CALM      30.14R
MINEOLA        CLEAR     59  50  72 E3        30.12S
TYLER          PTCLDY    64  47  53 SE8       30.13R
LONGVIEW       CLEAR     65  55  70 SE6       30.14R
MARSHALL       CLEAR     57  50  77 CALM      30.17S
ATHENS         CLOUDY    55  48  76 CALM      30.11S
PALESTINE      CLOUDY    62  53  74 E3        30.14S
JACKSONVILLE   CLEAR     68  53  59 CALM      30.16S
HENDERSON      CLEAR     59  49  68 CALM      30.15S
CENTER         CLEAR     63  59  87 CALM      30.16S
NACOGDOCHES    CLEAR     59  54  83 CALM      30.15R
LUFKIN         CLEAR     62  58  86 E5        30.13R
$$

SUPPLEMENTAL OBSERVATIONS (NWS FORT WORTH AREA)

CITY           SKY/WX    TMP DP  RH WIND       PRES   REMARKS
DENISON DAM      N/A     64  46  52 E3          N/A
CADDO GRASSLND   N/A     59  48  67 SE1         N/A
PAT MAYSE LAKE   N/A     68  39  34 E8          N/A
GREENVILLE       N/A     64  45  48 SE3         N/A
CEDAR HILL       N/A     66  43  42 SE6         N/A
LBJ GRASSLAND    N/A     72  39  30 SE8         N/A
POSSUM KINGDOM   N/A     70  43  37 SE8         N/A
GRANBURY         N/A     66  43  42 SE5         N/A
COMANCHE         N/A     66  41  39 S9          N/A
MCGREGOR         N/A     70  43  37 SE8         N/A
TEMPLE           N/A     68  45  42 E5          N/A
LAKE LIMESTONE   N/A     64  46  52 SE3         N/A
ATHENS           N/A     63  52  67 CALM        N/A
$$

SUPPLEMENTAL OBSERVATIONS (NWS NORMAN AREA)

CITY           SKY/WX    TMP DP  RH WIND       PRES   REMARKS
GOODLETT         N/A     67  38  34 E9        30.02S
ODELL            N/A     67  47  48 SE9       30.05R
CROWELL          N/A     65  42  42 SE7       30.04R
KNOX CITY        N/A     69  37  31 SE12      30.03R
SEYMOUR          N/A     69  42  37 SE10      30.04R
MILLERS CREEK    N/A     70  43  37 SE9         N/A
$$

SUPPLEMENTAL OBSERVATIONS (NWS SAN ANGELO AREA)

CITY           SKY/WX    TMP DP  RH WIND       PRES   REMARKS
WEINERT          N/A     70  40  33 SE9       30.04R
HASKELL          N/A     72  36  26 SE9       30.04S
THROCKMORTON     N/A     65  44  45 SE8       30.06R
STAMFORD         N/A     66  41  40 S7        30.05S
CLYDE            N/A     69  41  36 SE9       30.08S
HAMBY            N/A     66  37  34 SE6         N/A
IVIE RESERVOIR   N/A     70  37  30 SE9         N/A
COLORADO BEND    N/A     70  45  40 SE7         N/A
$$

SUPPLEMENTAL OBSERVATIONS (NWS SHREVEPORT AREA)

CITY           SKY/WX    TMP DP  RH WIND       PRES   REMARKS
CLARKSVILLE      N/A     63  45  51 SE1         N/A
TEXARKANA        N/A     54  50  87 CALM        N/A
LINDEN           N/A     64  50  59 E1          N/A
CADDO LAKE       N/A     55  50  82 CALM        N/A
GILMER           N/A     57  50  77 CALM        N/A
HENDERSON        N/A     59  48  67 CALM        N/A
LUFKIN           N/A     63  59  88 MISG        N/A
S SABINE NF      N/A     59  57  94 CALM        N/A
$$

SUPPLEMENTAL OBSERVATIONS ARE A COLLECTION OF AUTOMATED INSTRUMENTS
THAT ARE MAINTAINED BY A VARIETY OF FEDERAL AND STATE AGENCIES.
CERTAIN ELEMENTS...SUCH AS HUMIDITY VALUES AND SUSTAINED WIND
SPEEDS...MAY BE APPROXIMATED.





USA.gov is the U.S. government's official web portal to all federal, state and local government web resources and services.